McCook, NE

7:38 AM CST on January 24, 2017 (GMT -0600)
McCook Municipal

Weather History for KMCK - May, 2013

Change the Weather History Date:

Saturday, May 4, 2013

  Actual Average Record
Temperature  
Mean Temperature 45 °F 56 °F  
Max Temperature 62 °F 70 °F 94 °F (2012)
Min Temperature 27 °F 42 °F 27 °F (2013)
Degree Days  
Heating Degree Days 20    
Moisture  
Dew Point 20 °F    
Average Humidity 45    
Maximum Humidity 75    
Minimum Humidity 19    
Precipitation  
Precipitation 0.00 in 0.10 in 1.81 in (2001)
Month to date precipitation 0.09 0.38  
Year to date precipitation 3.66 5.18  
Sea Level Pressure  
Sea Level Pressure 30.17 in    
Wind  
Wind Speed 14 mph (North)    
Max Wind Speed 26 mph    
Max Gust Speed 32 mph    
Visibility 10 miles    
Events      
T = Trace of Precipitation, MM = Missing Value Source: NWS Daily Summary

Daily Weather History Graph

Daily Weather History Graph

Search for Another Location

Airport or City:

Trip Planner

Search our weather history database for the weather conditions in past years. The results will help you decide how hot, cold, wet, or windy it might be!

Date:

Astronomy

May. 04, 2013 Rise Set
Actual Time 6:37 AM CDT 8:40 PM CDT
Civil Twilight 6:08 AM CDT 9:10 PM CDT
Nautical Twilight 5:31 AM CDT 9:47 PM CDT
Astronomical Twilight 4:52 AM CDT 10:26 PM CDT
Moon 3:37 AM CDT (5/4) 3:40 PM CDT (5/4)
Length of Visible Light 15h 02m
Length of Day
14h 02m
Waning Crescent, 27% of the Moon is Illuminated
May 4
Waning Crescent
May 9
New
May 17
First Quarter
May 24
Full
May 31
Last Quarter

Hourly Weather History & Observations

Time (CDT) Temp. Windchill Dew Point Humidity Pressure Visibility Wind Dir Wind Speed Gust Speed Precip Events Conditions
12:53 AM 33.1 °F 25.5 °F 21.9 °F 64% 30.16 in 10.0 mi North 9.2 mph - N/A   Clear
1:53 AM 33.1 °F 26.1 °F 19.9 °F 59% 30.15 in 10.0 mi North 8.1 mph - N/A   Clear
2:53 AM 33.1 °F 24.9 °F 19.9 °F 59% 30.14 in 10.0 mi North 10.4 mph - N/A   Clear
3:53 AM 30.0 °F 21.1 °F 19.9 °F 66% 30.16 in 10.0 mi WNW 10.4 mph - N/A   Clear
4:53 AM 28.9 °F 19.8 °F 19.9 °F 69% 30.17 in 10.0 mi WNW 10.4 mph - N/A   Clear
5:53 AM 27.0 °F 18.0 °F 19.9 °F 75% 30.17 in 10.0 mi NW 9.2 mph - N/A   Clear
6:53 AM 27.0 °F 15.6 °F 19.9 °F 75% 30.17 in 10.0 mi NW 13.8 mph - N/A   Clear
7:53 AM 32.0 °F 21.6 °F 21.9 °F 66% 30.19 in 10.0 mi NW 15.0 mph - N/A   Clear
8:53 AM 39.0 °F 29.3 °F 23.0 °F 53% 30.19 in 10.0 mi NNW 19.6 mph - N/A   Clear
9:53 AM 43.0 °F 33.5 °F 19.9 °F 40% 30.19 in 10.0 mi North 24.2 mph 28.8 mph N/A   Clear
10:53 AM 46.9 °F - 19.0 °F 33% 30.19 in 10.0 mi North 20.7 mph - N/A   Clear
11:53 AM 50.0 °F - 18.0 °F 28% 30.18 in 10.0 mi North 26.5 mph 31.1 mph N/A   Clear
12:53 PM 53.1 °F - 21.9 °F 30% 30.17 in 10.0 mi NNW 20.7 mph 28.8 mph N/A   Clear
1:53 PM 57.0 °F - 16.0 °F 20% 30.15 in 10.0 mi North 23.0 mph 32.2 mph N/A   Clear
2:53 PM 60.1 °F - 17.1 °F 19% 30.13 in 10.0 mi North 20.7 mph 25.3 mph N/A   Clear
3:53 PM 62.1 °F - 19.0 °F 19% 30.13 in 10.0 mi North 23.0 mph 27.6 mph N/A   Clear
4:53 PM 60.1 °F - 18.0 °F 20% 30.13 in 10.0 mi North 17.3 mph 32.2 mph N/A   Clear
5:53 PM 59.0 °F - 19.0 °F 21% 30.13 in 10.0 mi North 20.7 mph 28.8 mph N/A   Clear
6:53 PM 57.0 °F - 21.0 °F 25% 30.15 in 10.0 mi NNE 18.4 mph 24.2 mph N/A   Clear
7:53 PM 54.0 °F - 21.9 °F 29% 30.16 in 10.0 mi NE 13.8 mph - N/A   Clear
8:53 PM 46.0 °F 41.0 °F 23.0 °F 40% 30.19 in 10.0 mi NE 10.4 mph - N/A   Clear
9:53 PM 39.9 °F 35.1 °F 23.0 °F 51% 30.22 in 10.0 mi NE 6.9 mph - N/A   Clear
10:53 PM 37.9 °F 32.1 °F 21.9 °F 53% 30.24 in 10.0 mi NNE 8.1 mph - N/A   Clear
11:53 PM 36.0 °F 30.3 °F 21.9 °F 57% 30.25 in 10.0 mi North 6.9 mph - N/A   Clear